Flag for Czech Republic Weather past 2 weeks in Brno, Czech Republic

Now
67 °F

Overcast.


Feels Like: 67 °F
Forecast: 62 / 81 °F
Wind: 1 mph from Northwest

Location: Brno / Turany

Current Time: Jul 31, 2014 at 5:57:41 AM

Latest Report: Jul 31, 2014 at 4:00 AM


Visibility: 4 mi

Pressure: 29.77 "Hg

Humidity: 95%

Dew point: 66 °F

Location of BrnoLocation

Historic Weather in Brno — Graph

°F

Brno temperature yesterday

Maximum temperature yesterday: 81 °F (at 4:00 PM)
Minimum temperature yesterday: 65 °F (at 6:00 AM)
Average temperature yesterday: 73 °F

Past Weeks' High & Low Weather Summary

 TemperatureHumidityPressure
High92 °F (Jul 20, 5:00 PM)95% (Jul 31, 4:00 AM)30.13 "Hg (Jul 31, 4:00 AM)
Low58 °F (Jul 26, 6:00 AM)23% (Jul 17, 4:00 PM)29.66 "Hg (Jul 21, 3:00 PM)
Average73 °F63%29.90 "Hg
* Reported Jul 16 4:00 AM — Jul 31 4:00 AM, Brno, Weather by CustomWeather, © 2014

Note: Actual official high and low records may vary slightly from our data, if they occured in-between our weather recording intervals... More about our weather records

Advertising

Brno weather history for previous 24 hours

 ConditionsComfort  
Time TempWeatherWind HumidityBarometerVisibility
4:00 AM
Jul 31
67 °FOvercast.1 mph95%29.77 "Hg4 mi
3:00 AM69 °FLight rain. Overcast.2 mph94%29.77 "Hg4 mi
2:00 AM69 °FLight rain. Overcast.3 mph89%29.75 "Hg6 mi
1:00 AM70 °FOvercast.3 mph85%29.76 "Hg9 mi
12:00 AM72 °FOvercast.2 mph82%29.75 "Hg11 mi
11:00 PM
Jul 30
72 °FOvercast.2 mph82%29.75 "Hg7 mi
10:00 PM73 °FOvercast.2 mph82%29.76 "Hg12 mi
9:00 PM74 °FOvercast.1 mph76%29.73 "Hg12 mi
8:00 PM74 °FOvercast.3 mph80%29.72 "Hg11 mi
7:00 PM74 °FOvercast.3 mph78%29.72 "Hg9 mi
6:00 PM75 °FThunderstorms. Overcast.3 mph74%29.73 "Hg9 mi
5:00 PM77 °FThunderstorms. Overcast.6 mph66%29.73 "Hg9 mi
4:00 PM81 °FOvercast.8 mph54%29.72 "Hg7 mi
3:00 PM80 °FPartly sunny.2 mph57%29.72 "Hg10 mi
2:00 PM77 °FSprinkles. Overcast.7 mph64%29.74 "Hg16 mi
1:00 PM80 °FOvercast.6 mph56%29.73 "Hg19 mi
12:00 PM78 °FOvercast.7 mph58%29.75 "Hg22 mi
11:00 AM77 °FPartly sunny.6 mph60%29.74 "Hg19 mi
10:00 AM75 °FOvercast.8 mph68%29.74 "Hg16 mi
9:00 AM72 °FOvercast.7 mph73%29.74 "Hg9 mi
8:00 AM70 °FFog.7 mph80%29.75 "Hg7 mi
7:00 AM67 °FPartly sunny.3 mph87%29.75 "Hg6 mi
6:00 AM65 °FFog.3 mph91%29.74 "Hg5 mi
5:00 AM65 °FFog.5 mph91%29.74 "Hg6 mi
Weather by CustomWeather, © 2014

See weather overviewHow to use our weather pages